Weather History for Smyrna, TN

Change the Weather History Date:

Wednesday, January 8, 2014

  Actual Average Record
Temperature  
Mean Temperature 28 °F -  
Max Temperature 41 °F 44 °F 70 °F (2008)
Min Temperature 15 °F 31 °F 13 °F (2011)
Degree Days  
Heating Degree Days 37    
Moisture  
Dew Point 10 °F    
Average Humidity 48    
Maximum Humidity 68    
Minimum Humidity 33    
Precipitation  
Precipitation 0.00 in - - ()
Sea Level Pressure  
Sea Level Pressure 30.52 in    
Wind  
Wind Speed 5 mph (South)    
Max Wind Speed 9 mph    
Max Gust Speed -    
Visibility 10 miles    
Events      
Averages and records for this station are not official NWS values.
T = Trace of Precipitation, MM = Missing Value Source: NWS Daily Summary

Daily Weather History Graph

Daily Weather History Graph

Search for Another Location

Airport:

Trip Planner

Search our weather history database for the weather conditions in past years. The results will help you decide how hot, cold, wet, or windy it might be!

Date:

Astronomy

Jan. 08, 2014 Rise Set
Actual Time 6:57 AM CST 4:48 PM CST
Civil Twilight 6:28 AM CST 5:17 PM CST
Nautical Twilight 5:57 AM CST 5:48 PM CST
Astronomical Twilight 5:26 AM CST 6:19 PM CST
Moon 11:35 AM CST (1/8) 12:08 AM CST (1/8)
Length of Visible Light 10h 48m
Length of Day
9h 51m
First Quarter, 56% of the Moon is Illuminated
Jan 8
First Quarter
Jan 15
Full
Jan 23
Last Quarter
Jan 30
New
Feb 6
First Quarter

Hourly Weather History & Observations

Time (CST) Temp. Windchill Dew Point Humidity Pressure Visibility Wind Dir Wind Speed Gust Speed Precip Events Conditions
12:56 AM 16.2 °F 7.6 °F 6.1 °F 65% 30.54 in 10.0 mi NNW 5.8 mph - N/A   Clear
1:56 AM 15.1 °F 9.4 °F 6.1 °F 68% 30.51 in 10.0 mi South 3.5 mph - N/A   Clear
2:56 AM 16.2 °F 9.0 °F 5.0 °F 62% 30.57 in 10.0 mi South 4.6 mph - N/A   Clear
3:56 AM 16.2 °F 5.5 °F 6.1 °F 65% 30.56 in 10.0 mi South 8.1 mph - N/A   Clear
4:56 AM 17.1 °F 7.6 °F 6.1 °F 62% 30.55 in 10.0 mi South 6.9 mph - N/A   Clear
5:56 AM 16.2 °F 7.6 °F 6.1 °F 65% 30.56 in 10.0 mi South 5.8 mph - N/A   Clear
6:56 AM 15.1 °F 7.7 °F 6.1 °F 68% 30.57 in 10.0 mi SSE 4.6 mph - N/A   Clear
7:56 AM 19.0 °F 13.9 °F 7.2 °F 60% 30.59 in 10.0 mi South 3.5 mph - N/A   Clear
8:56 AM 25.2 °F 16.5 °F 8.1 °F 48% 30.61 in 10.0 mi SSW 8.1 mph - N/A   Clear
9:56 AM 28.4 °F 19.7 °F 8.6 °F 43% 30.60 in 10.0 mi South 9.2 mph - N/A   Clear
10:56 AM - - - N/A% - - North - - N/A   Unknown
11:56 AM 36.0 °F 32.1 °F 12.0 °F 37% 30.54 in 10.0 mi SSW 4.6 mph - N/A   Clear
12:56 PM 37.9 °F 33.5 °F 13.1 °F 36% 30.51 in 10.0 mi SSW 5.8 mph - N/A   Clear
1:13 PM 39.2 °F 34.2 °F 12.2 °F 33% - 1.5 mi South 6.9 mph - N/A   Haze
1:20 PM 39.2 °F - 12.2 °F 33% - 10.0 mi Calm Calm - N/A   Clear
1:56 PM 41.0 °F 37.1 °F 15.1 °F 35% 30.49 in 10.0 mi SSW 5.8 mph - N/A   Clear
2:56 PM 41.0 °F 35.8 °F 14.0 °F 33% 30.48 in 10.0 mi SSE 8.1 mph - N/A   Clear
3:56 PM 38.8 °F - 13.1 °F 35% 30.47 in 10.0 mi Calm Calm - N/A   Clear
4:56 PM 36.9 °F - 15.1 °F 41% 30.47 in 10.0 mi Calm Calm - N/A   Clear
5:56 PM - - - N/A% 30.42 in 10.0 mi South 4.6 mph - N/A   Clear
6:56 PM 37.4 °F 33.8 °F 14.0 °F 38% 30.48 in 10.0 mi South 4.6 mph - N/A   Clear
7:56 PM 37.4 °F 33.8 °F 15.8 °F 41% 30.48 in 10.0 mi South 4.6 mph - N/A   Overcast
8:56 PM 37.4 °F 33.8 °F 15.8 °F 41% 30.48 in 10.0 mi South 4.6 mph - N/A   Overcast
9:56 PM - - - N/A% - - North - - N/A   Unknown
10:56 PM - - - N/A% - - North - - N/A   Unknown
11:56 PM - - - N/A% - - North - - N/A   Unknown